Location: Lima
(44.6384°N, 112.5920°W)
Time: 03:22:52
(UTC+00:00)

SPROUT - Visible Passes

Search period start: 16 April 2024 00:00
Search period end: 26 April 2024 00:00
Orbit: 474 x 479 km, 98.0° (Epoch: 15 April)

Date Brightness Start Highest point End Pass type
(mag) Time Alt. Az. Time Alt. Az. Time Alt. Az.
16 Apr ? 10:21:35 43° NNW 10:21:35 43° NNW 10:24:05 10° NNW visible
17 Apr ? 09:54:07 41° NE 09:54:07 41° NE 09:56:58 10° N visible
17 Apr ? 11:28:16 10° WNW 11:28:16 10° WNW 11:28:27 10° WNW visible
18 Apr ? 09:26:26 22° ENE 09:26:29 22° ENE 09:29:15 10° NNE visible
18 Apr ? 11:00:35 22° WNW 11:00:35 22° WNW 11:02:32 10° NW visible
19 Apr ? 08:58:34 10° ENE 08:59:20 11° ENE 09:00:22 10° NE visible
19 Apr ? 10:32:42 46° WNW 10:32:42 46° WNW 10:35:31 10° NNW visible
20 Apr ? 10:04:38 59° NE 10:04:38 59° NE 10:07:55 10° N visible
21 Apr ? 09:36:22 26° E 09:36:44 27° ENE 09:39:45 10° N visible
21 Apr ? 11:10:28 19° W 11:10:28 19° W 11:12:31 10° NW visible
22 Apr ? 09:07:54 12° E 09:08:58 14° ENE 09:10:46 10° NNE visible
22 Apr ? 10:42:00 42° W 10:42:00 42° W 10:45:07 10° NNW visible
23 Apr ? 10:13:20 75° ESE 10:13:30 78° ENE 10:17:01 10° N visible
24 Apr ? 09:44:28 29° E 09:45:11 32° ENE 09:48:22 10° N visible
24 Apr ? 11:18:33 16° W 11:18:33 16° W 11:20:38 10° NW visible
25 Apr ? 09:15:26 13° E 09:16:48 16° ENE 09:18:59 10° NNE visible
25 Apr ? 10:49:29 34° WSW 10:49:38 35° W 10:52:52 10° NNW visible
